Year,Month,Day,Hour,Minute,Value (Times are PST for windgust in km/hr)
2012,06,05,00,00,1.60
2012,06,05,00,06,1.60
2012,06,05,00,07,1.60
2012,06,05,00,08,1.60
2012,06,05,00,09,1.60
2012,06,05,00,10,1.60
2012,06,05,00,11,1.60
2012,06,05,00,12,1.60
2012,06,05,00,14,1.60
2012,06,05,00,16,1.60
2012,06,05,00,20,1.60
2012,06,05,00,22,1.60
2012,06,05,00,23,1.60
2012,06,05,00,24,1.60
2012,06,05,00,25,3.20
2012,06,05,00,26,1.60
2012,06,05,00,27,1.60
2012,06,05,00,28,1.60
2012,06,05,00,29,3.20
2012,06,05,00,30,3.20
2012,06,05,00,31,1.60
2012,06,05,00,32,1.60
2012,06,05,00,33,1.60
2012,06,05,00,34,1.60
2012,06,05,00,36,1.60
2012,06,05,00,37,1.60
2012,06,05,00,39,1.60
2012,06,05,00,40,3.20
2012,06,05,00,41,3.20
2012,06,05,00,42,8.10
2012,06,05,00,43,8.10
2012,06,05,00,44,6.40
2012,06,05,00,45,6.40
2012,06,05,00,46,6.40
2012,06,05,00,47,3.20
2012,06,05,00,48,9.60
2012,06,05,00,49,6.40
2012,06,05,00,50,6.40
2012,06,05,00,51,9.60
2012,06,05,00,52,8.10
2012,06,05,00,53,9.60
2012,06,05,00,54,9.60
2012,06,05,00,55,6.40
2012,06,05,00,56,3.20
2012,06,05,00,57,3.20
2012,06,05,00,58,1.60
2012,06,05,00,59,8.10
2012,06,05,01,00,8.10
2012,06,05,01,01,6.40
2012,06,05,01,02,6.40
2012,06,05,01,03,6.40
2012,06,05,01,04,6.40
2012,06,05,01,05,1.60
2012,06,05,01,06,3.20
2012,06,05,01,07,3.20
2012,06,05,01,08,3.20
2012,06,05,01,09,1.60
2012,06,05,01,10,3.20
2012,06,05,01,11,6.40
2012,06,05,01,12,3.20
2012,06,05,01,13,1.60
2012,06,05,01,14,1.60
2012,06,05,01,18,1.60
2012,06,05,01,19,3.20
2012,06,05,01,20,3.20
2012,06,05,01,22,3.20
2012,06,05,01,23,1.60
2012,06,05,01,26,1.60
2012,06,05,01,33,1.60
2012,06,05,01,34,3.20
2012,06,05,01,38,3.20
2012,06,05,01,39,1.60
2012,06,05,01,40,1.60
2012,06,05,01,47,1.60
2012,06,05,01,48,1.60
2012,06,05,01,49,1.60
2012,06,05,01,50,1.60
2012,06,05,01,51,1.60
2012,06,05,01,53,1.60
2012,06,05,01,54,3.20
2012,06,05,01,55,1.60
2012,06,05,01,56,1.60
2012,06,05,01,57,6.40
2012,06,05,01,58,6.40
2012,06,05,01,59,3.20
2012,06,05,02,00,6.40
2012,06,05,02,01,3.20
2012,06,05,02,02,3.20
2012,06,05,02,03,3.20
2012,06,05,02,05,3.20
2012,06,05,02,06,1.60
2012,06,05,02,07,3.20
2012,06,05,02,08,1.60
2012,06,05,02,09,1.60
2012,06,05,02,11,1.60
2012,06,05,02,12,3.20
2012,06,05,02,13,6.40
2012,06,05,02,14,1.60
2012,06,05,02,16,1.60
2012,06,05,02,18,1.60
2012,06,05,02,19,1.60
2012,06,05,02,20,1.60
2012,06,05,02,35,3.20
2012,06,05,02,36,3.20
2012,06,05,02,37,6.40
2012,06,05,02,38,1.60
2012,06,05,02,39,1.60
2012,06,05,02,40,1.60
2012,06,05,02,42,1.60
2012,06,05,02,43,1.60
2012,06,05,02,45,3.20
2012,06,05,02,46,3.20
2012,06,05,02,47,3.20
2012,06,05,02,48,6.40
2012,06,05,02,49,3.20
2012,06,05,02,50,1.60
2012,06,05,02,51,3.20
2012,06,05,02,52,6.40
2012,06,05,02,53,6.40
2012,06,05,02,54,6.40
2012,06,05,02,55,1.60
2012,06,05,02,59,1.60
2012,06,05,03,06,1.60
2012,06,05,03,07,1.60
2012,06,05,03,08,3.20
2012,06,05,03,09,3.20
2012,06,05,03,10,6.40
2012,06,05,03,11,3.20
2012,06,05,03,12,1.60
2012,06,05,03,13,3.20
2012,06,05,03,14,3.20
2012,06,05,03,15,3.20
2012,06,05,03,16,3.20
2012,06,05,03,17,1.60
2012,06,05,03,18,1.60
2012,06,05,03,20,1.60
2012,06,05,03,21,3.20
2012,06,05,03,22,3.20
2012,06,05,03,23,3.20
2012,06,05,03,24,6.40
2012,06,05,03,25,6.40
2012,06,05,03,26,3.20
2012,06,05,03,27,3.20
2012,06,05,03,28,8.10
2012,06,05,03,29,8.10
2012,06,05,03,30,9.60
2012,06,05,03,31,6.40
2012,06,05,03,32,8.10
2012,06,05,03,33,6.40
2012,06,05,03,34,9.60
2012,06,05,03,35,8.10
2012,06,05,03,36,9.60
2012,06,05,03,37,9.60
2012,06,05,03,38,11.30
2012,06,05,03,39,9.60
2012,06,05,03,40,14.50
2012,06,05,03,41,11.30
2012,06,05,03,42,11.30
2012,06,05,03,43,11.30
2012,06,05,03,44,14.50
2012,06,05,03,45,14.50
2012,06,05,03,46,8.10
2012,06,05,03,47,8.10
2012,06,05,03,48,9.60
2012,06,05,03,49,8.10
2012,06,05,03,50,9.60
2012,06,05,03,51,8.10
2012,06,05,03,52,9.60
2012,06,05,03,53,6.40
2012,06,05,03,54,4.80
2012,06,05,03,55,3.20
2012,06,05,03,56,6.40
2012,06,05,03,57,3.20
2012,06,05,03,58,1.60
2012,06,05,04,01,1.60
2012,06,05,04,02,4.80
2012,06,05,04,03,3.20
2012,06,05,04,04,1.60
2012,06,05,04,05,3.20
2012,06,05,04,06,3.20
2012,06,05,04,07,1.60
2012,06,05,04,08,1.60
2012,06,05,04,09,4.80
2012,06,05,04,10,6.40
2012,06,05,04,11,6.40
2012,06,05,04,12,1.60
2012,06,05,04,13,3.20
2012,06,05,04,14,3.20
2012,06,05,04,15,9.60
2012,06,05,04,16,8.10
2012,06,05,04,17,3.20
2012,06,05,04,18,3.20
2012,06,05,04,19,3.20
2012,06,05,04,20,6.40
2012,06,05,04,21,3.20
2012,06,05,04,23,3.20
2012,06,05,04,24,3.20
2012,06,05,04,25,4.80
2012,06,05,04,26,4.80
2012,06,05,04,27,3.20
2012,06,05,04,28,8.10
2012,06,05,04,29,6.40
2012,06,05,04,30,8.10
2012,06,05,04,31,9.60
2012,06,05,04,32,8.10
2012,06,05,04,33,11.30
2012,06,05,04,34,9.60
2012,06,05,04,35,6.40
2012,06,05,04,36,6.40
2012,06,05,04,37,8.10
2012,06,05,04,38,8.10
2012,06,05,04,39,8.10
2012,06,05,04,40,3.20
2012,06,05,04,42,1.60
2012,06,05,04,43,3.20
2012,06,05,04,44,1.60
2012,06,05,04,45,1.60
2012,06,05,04,46,3.20
2012,06,05,04,47,1.60
2012,06,05,04,48,3.20
2012,06,05,04,49,3.20
2012,06,05,04,50,1.60
2012,06,05,04,51,1.60
2012,06,05,04,53,1.60
2012,06,05,04,54,1.60
2012,06,05,04,55,3.20
2012,06,05,04,56,3.20
2012,06,05,04,57,1.60
2012,06,05,04,58,3.20
2012,06,05,04,59,6.40
2012,06,05,05,00,8.10
2012,06,05,05,01,4.80
2012,06,05,05,02,3.20
2012,06,05,05,03,3.20
2012,06,05,05,04,4.80
2012,06,05,05,05,3.20
2012,06,05,05,06,1.60
2012,06,05,05,07,1.60
2012,06,05,05,08,3.20
2012,06,05,05,09,3.20
2012,06,05,05,10,6.40
2012,06,05,05,11,8.10
2012,06,05,05,12,9.60
2012,06,05,05,13,8.10
2012,06,05,05,14,8.10
2012,06,05,05,15,6.40
2012,06,05,05,16,11.30
2012,06,05,05,17,9.60
2012,06,05,05,18,9.60
2012,06,05,05,19,6.40
2012,06,05,05,20,6.40
2012,06,05,05,21,9.60
2012,06,05,05,22,8.10
2012,06,05,05,23,4.80
2012,06,05,05,24,6.40
2012,06,05,05,25,3.20
2012,06,05,05,26,4.80
2012,06,05,05,27,6.40
2012,06,05,05,28,4.80
2012,06,05,05,29,3.20
2012,06,05,05,30,4.80
2012,06,05,05,31,4.80
2012,06,05,05,32,4.80
2012,06,05,05,33,3.20
2012,06,05,05,34,6.40
2012,06,05,05,35,4.80
2012,06,05,05,36,6.40
2012,06,05,05,37,6.40
2012,06,05,05,38,6.40
2012,06,05,05,39,3.20
2012,06,05,05,40,1.60
2012,06,05,05,41,11.30
2012,06,05,05,42,9.60
2012,06,05,05,43,4.80
2012,06,05,05,44,6.40
2012,06,05,05,45,8.10
2012,06,05,05,46,11.30
2012,06,05,05,47,8.10
2012,06,05,05,48,6.40
2012,06,05,05,49,8.10
2012,06,05,05,50,14.50
2012,06,05,05,51,16.10
2012,06,05,05,52,11.30
2012,06,05,05,53,9.60
2012,06,05,05,54,12.90
2012,06,05,05,55,11.30
2012,06,05,05,56,9.60
2012,06,05,05,57,11.30
2012,06,05,05,58,3.20
2012,06,05,05,59,12.90
2012,06,05,06,00,6.40
2012,06,05,06,01,11.30
2012,06,05,06,02,8.10
2012,06,05,06,03,9.60
2012,06,05,06,04,8.10
2012,06,05,06,05,8.10
2012,06,05,06,06,9.60
2012,06,05,06,07,11.30
2012,06,05,06,08,12.90
2012,06,05,06,09,8.10
2012,06,05,06,10,6.40
2012,06,05,06,11,12.90
2012,06,05,06,12,11.30
2012,06,05,06,13,11.30
2012,06,05,06,14,8.10
2012,06,05,06,15,11.30
2012,06,05,06,16,12.90
2012,06,05,06,17,11.30
2012,06,05,06,18,11.30
2012,06,05,06,19,16.10
2012,06,05,06,20,12.90
2012,06,05,06,21,9.60
2012,06,05,06,22,19.30
2012,06,05,06,23,12.90
2012,06,05,06,24,12.90
2012,06,05,06,25,16.10
2012,06,05,06,26,17.70
2012,06,05,06,27,11.30
2012,06,05,06,28,17.70
2012,06,05,06,29,12.90
2012,06,05,06,30,14.50
2012,06,05,06,31,11.30
2012,06,05,06,32,6.40
2012,06,05,06,33,17.70
2012,06,05,06,34,16.10
2012,06,05,06,35,11.30
2012,06,05,06,36,12.90
2012,06,05,06,37,17.70
2012,06,05,06,38,17.70
2012,06,05,06,39,16.10
2012,06,05,06,40,14.50
2012,06,05,06,41,11.30
2012,06,05,06,42,14.50
2012,06,05,06,43,11.30
2012,06,05,06,44,8.10
2012,06,05,06,45,6.40
2012,06,05,06,46,8.10
2012,06,05,06,47,14.50
2012,06,05,06,48,12.90
2012,06,05,06,49,11.30
2012,06,05,06,50,12.90
2012,06,05,06,51,11.30
2012,06,05,06,52,9.60
2012,06,05,06,53,3.20
2012,06,05,06,54,3.20
2012,06,05,06,55,3.20
2012,06,05,06,56,6.40
2012,06,05,06,57,11.30
2012,06,05,06,58,11.30
2012,06,05,06,59,6.40
2012,06,05,07,00,6.40
2012,06,05,07,01,11.30
2012,06,05,07,02,8.10
2012,06,05,07,03,8.10
2012,06,05,07,04,4.80
2012,06,05,07,05,8.10
2012,06,05,07,06,6.40
2012,06,05,07,07,8.10
2012,06,05,07,08,8.10
2012,06,05,07,09,8.10
2012,06,05,07,10,16.10
2012,06,05,07,11,12.90
2012,06,05,07,12,12.90
2012,06,05,07,13,16.10
2012,06,05,07,14,9.60
2012,06,05,07,15,6.40
2012,06,05,07,16,9.60
2012,06,05,07,17,8.10
2012,06,05,07,18,9.60
2012,06,05,07,19,12.90
2012,06,05,07,20,9.60
2012,06,05,07,21,9.60
2012,06,05,07,22,8.10
2012,06,05,07,23,8.10
2012,06,05,07,24,8.10
2012,06,05,07,25,6.40
2012,06,05,07,26,9.60
2012,06,05,07,27,9.60
2012,06,05,07,28,19.30
2012,06,05,07,29,11.30
2012,06,05,07,30,14.50
2012,06,05,07,31,9.60
2012,06,05,07,32,9.60
2012,06,05,07,33,9.60
2012,06,05,07,34,9.60
2012,06,05,07,35,17.70
2012,06,05,07,36,14.50
2012,06,05,07,37,12.90
2012,06,05,07,38,22.50
2012,06,05,07,39,16.10
2012,06,05,07,40,11.30
2012,06,05,07,41,11.30
2012,06,05,07,42,8.10
2012,06,05,07,43,9.60
2012,06,05,07,44,9.60
2012,06,05,07,45,9.60
2012,06,05,07,46,12.90
2012,06,05,07,47,12.90
2012,06,05,07,48,6.40
2012,06,05,07,49,12.90
2012,06,05,07,50,9.60
2012,06,05,07,51,6.40
2012,06,05,07,52,3.20
2012,06,05,07,53,3.20
2012,06,05,07,54,8.10
2012,06,05,07,55,8.10
2012,06,05,07,56,9.60
2012,06,05,07,57,6.40
2012,06,05,07,58,8.10
2012,06,05,07,59,8.10
2012,06,05,08,00,3.20
2012,06,05,08,01,8.10
2012,06,05,08,02,9.60
2012,06,05,08,03,6.40
2012,06,05,08,04,6.40
2012,06,05,08,05,9.60
2012,06,05,08,06,6.40
2012,06,05,08,07,8.10
2012,06,05,08,08,6.40
2012,06,05,08,09,6.40
2012,06,05,08,10,3.20
2012,06,05,08,11,4.80
2012,06,05,08,12,3.20
2012,06,05,08,13,6.40
2012,06,05,08,14,6.40
2012,06,05,08,15,1.60
2012,06,05,08,16,3.20
2012,06,05,08,17,3.20
2012,06,05,08,18,14.50
2012,06,05,08,19,9.60
2012,06,05,08,20,9.60
2012,06,05,08,21,11.30
2012,06,05,08,22,14.50
2012,06,05,08,23,11.30
2012,06,05,08,24,8.10
2012,06,05,08,25,6.40
2012,06,05,08,26,6.40
2012,06,05,08,27,8.10
2012,06,05,08,28,9.60
2012,06,05,08,29,9.60
2012,06,05,08,30,9.60
2012,06,05,08,31,9.60
2012,06,05,08,32,11.30
2012,06,05,08,33,9.60
2012,06,05,08,34,6.40
2012,06,05,08,35,3.20
2012,06,05,08,36,6.40
2012,06,05,08,37,8.10
2012,06,05,08,38,8.10
2012,06,05,08,39,8.10
2012,06,05,08,40,9.60
2012,06,05,08,41,6.40
2012,06,05,08,42,8.10
2012,06,05,08,43,9.60
2012,06,05,08,44,8.10
2012,06,05,08,45,6.40
2012,06,05,08,46,6.40
2012,06,05,08,47,9.60
2012,06,05,08,48,9.60
2012,06,05,08,49,11.30
2012,06,05,08,50,14.50
2012,06,05,08,51,17.70
2012,06,05,08,52,17.70
2012,06,05,08,53,14.50
2012,06,05,08,54,19.30
2012,06,05,08,55,12.90
2012,06,05,08,56,9.60
2012,06,05,08,57,9.60
2012,06,05,08,58,12.90
2012,06,05,08,59,9.60
2012,06,05,09,00,6.40
2012,06,05,09,01,9.60
2012,06,05,09,02,6.40
2012,06,05,09,03,8.10
2012,06,05,09,04,9.60
2012,06,05,09,05,16.10
2012,06,05,09,06,16.10
2012,06,05,09,07,12.90
2012,06,05,09,08,20.90
2012,06,05,09,09,9.60
2012,06,05,09,10,17.70
2012,06,05,09,11,16.10
2012,06,05,09,12,11.30
2012,06,05,09,13,17.70
2012,06,05,09,14,9.60
2012,06,05,09,15,8.10
2012,06,05,09,16,16.10
2012,06,05,09,17,14.50
2012,06,05,09,18,12.90
2012,06,05,09,19,16.10
2012,06,05,09,20,16.10
2012,06,05,09,21,11.30
2012,06,05,09,22,12.90
2012,06,05,09,23,14.50
2012,06,05,09,24,22.50
2012,06,05,09,25,24.20
2012,06,05,09,26,22.50
2012,06,05,09,27,19.30
2012,06,05,09,28,20.90
2012,06,05,09,29,14.50
2012,06,05,09,30,12.90
2012,06,05,09,31,16.10
2012,06,05,09,32,11.30
2012,06,05,09,33,11.30
2012,06,05,09,34,22.50
2012,06,05,09,35,17.70
2012,06,05,09,36,16.10
2012,06,05,09,37,30.60
2012,06,05,09,38,22.50
2012,06,05,09,39,19.30
2012,06,05,09,40,17.70
2012,06,05,09,41,4.80
2012,06,05,09,42,11.30
2012,06,05,09,43,16.10
2012,06,05,09,44,16.10
2012,06,05,09,45,12.90
2012,06,05,09,46,14.50
2012,06,05,09,47,24.20
2012,06,05,09,48,24.20
2012,06,05,09,49,19.30
2012,06,05,09,50,17.70
2012,06,05,09,51,14.50
2012,06,05,09,52,14.50
2012,06,05,09,53,11.30
2012,06,05,09,54,14.50
2012,06,05,09,55,14.50
2012,06,05,09,56,12.90
2012,06,05,09,57,11.30
2012,06,05,09,58,12.90
2012,06,05,09,59,16.10
2012,06,05,10,00,12.90
2012,06,05,10,01,19.30
2012,06,05,10,02,14.50
2012,06,05,10,03,9.60
2012,06,05,10,04,17.70
2012,06,05,10,05,19.30
2012,06,05,10,06,16.10
2012,06,05,10,07,16.10
2012,06,05,10,08,17.70
2012,06,05,10,09,19.30
2012,06,05,10,10,11.30
2012,06,05,10,11,14.50
2012,06,05,10,12,14.50
2012,06,05,10,13,17.70
2012,06,05,10,14,19.30
2012,06,05,10,15,14.50
2012,06,05,10,16,12.90
2012,06,05,10,17,20.90
2012,06,05,10,18,12.90
2012,06,05,10,19,17.70
2012,06,05,10,20,17.70
2012,06,05,10,21,14.50
2012,06,05,10,22,16.10
2012,06,05,10,23,12.90
2012,06,05,10,24,14.50
2012,06,05,10,25,19.30
2012,06,05,10,26,19.30
2012,06,05,10,27,20.90
2012,06,05,10,28,20.90
2012,06,05,10,29,20.90
2012,06,05,10,30,17.70
2012,06,05,10,31,17.70
2012,06,05,10,32,17.70
2012,06,05,10,33,20.90
2012,06,05,10,34,16.10
2012,06,05,10,35,24.20
2012,06,05,10,36,20.90
2012,06,05,10,37,19.30
2012,06,05,10,38,22.50
2012,06,05,10,39,16.10
2012,06,05,10,40,16.10
2012,06,05,10,41,12.90
2012,06,05,10,42,16.10
2012,06,05,10,43,12.90
2012,06,05,10,44,19.30
2012,06,05,10,45,16.10
2012,06,05,10,46,19.30
2012,06,05,10,47,24.20
2012,06,05,10,48,14.50
2012,06,05,10,49,16.10
2012,06,05,10,50,24.20
2012,06,05,10,51,27.40
2012,06,05,10,52,24.20
2012,06,05,10,53,25.70
2012,06,05,10,54,20.90
2012,06,05,10,55,14.50
2012,06,05,10,56,16.10
2012,06,05,10,57,20.90
2012,06,05,10,58,19.30
2012,06,05,10,59,24.20
2012,06,05,11,00,24.20
2012,06,05,11,01,29.00
2012,06,05,11,02,27.40
2012,06,05,11,03,24.20
2012,06,05,11,04,19.30
2012,06,05,11,05,25.70
2012,06,05,11,06,37.00
2012,06,05,11,07,29.00
2012,06,05,11,08,27.40
2012,06,05,11,09,22.50
2012,06,05,11,10,20.90
2012,06,05,11,11,22.50
2012,06,05,11,12,22.50
2012,06,05,11,13,25.70
2012,06,05,11,14,27.40
2012,06,05,11,15,16.10
2012,06,05,11,16,19.30
2012,06,05,11,17,17.70
2012,06,05,11,18,25.70
2012,06,05,11,19,25.70
2012,06,05,11,20,25.70
2012,06,05,11,21,20.90
2012,06,05,11,22,25.70
2012,06,05,11,23,29.00
2012,06,05,11,24,24.20
2012,06,05,11,25,22.50
2012,06,05,11,26,25.70
2012,06,05,11,27,38.60
2012,06,05,11,28,19.30
2012,06,05,11,29,17.70
2012,06,05,11,30,32.20
2012,06,05,11,31,27.40
2012,06,05,11,32,24.20
2012,06,05,11,33,24.20
2012,06,05,11,34,29.00
2012,06,05,11,35,27.40
2012,06,05,11,36,32.20
2012,06,05,11,37,17.70
2012,06,05,11,38,25.70
2012,06,05,11,39,27.40
2012,06,05,11,40,19.30
2012,06,05,11,41,32.20
2012,06,05,11,42,22.50
2012,06,05,11,43,32.20
2012,06,05,11,44,25.70
2012,06,05,11,45,22.50
2012,06,05,11,46,20.90
2012,06,05,11,47,20.90
2012,06,05,11,48,20.90
2012,06,05,11,49,20.90
2012,06,05,11,50,24.20
2012,06,05,11,51,30.60
2012,06,05,11,52,20.90
2012,06,05,11,53,22.50
2012,06,05,11,54,29.00
2012,06,05,11,55,30.60
2012,06,05,11,56,32.20
2012,06,05,11,57,27.40
2012,06,05,11,58,29.00
2012,06,05,11,59,24.20
2012,06,05,12,00,22.50
2012,06,05,12,01,14.50
2012,06,05,12,02,30.60
2012,06,05,12,03,20.90
2012,06,05,12,04,17.70
2012,06,05,12,05,19.30
2012,06,05,12,06,25.70
2012,06,05,12,07,19.30
2012,06,05,12,08,19.30
2012,06,05,12,09,17.70
2012,06,05,12,10,22.50
2012,06,05,12,11,20.90
2012,06,05,12,12,22.50
2012,06,05,12,13,22.50
2012,06,05,12,14,16.10
2012,06,05,12,15,12.90
2012,06,05,12,16,20.90
2012,06,05,12,17,20.90
2012,06,05,12,18,22.50
2012,06,05,12,19,16.10
2012,06,05,12,20,14.50
2012,06,05,12,21,17.70
2012,06,05,12,22,14.50
2012,06,05,12,23,16.10
2012,06,05,12,24,14.50
2012,06,05,12,25,8.10
2012,06,05,12,26,9.60
2012,06,05,12,27,9.60
2012,06,05,12,28,17.70
2012,06,05,12,29,14.50
2012,06,05,12,30,22.50
2012,06,05,12,31,14.50
2012,06,05,12,32,11.30
2012,06,05,12,33,17.70
2012,06,05,12,34,20.90
2012,06,05,12,35,20.90
2012,06,05,12,36,20.90
2012,06,05,12,37,19.30
2012,06,05,12,38,25.70
2012,06,05,12,39,20.90
2012,06,05,12,40,14.50
2012,06,05,12,41,24.20
2012,06,05,12,42,17.70
2012,06,05,12,43,22.50
2012,06,05,12,44,19.30
2012,06,05,12,45,29.00
2012,06,05,12,46,30.60
2012,06,05,12,47,27.40
2012,06,05,12,48,22.50
2012,06,05,12,49,27.40
2012,06,05,12,50,25.70
2012,06,05,12,51,30.60
2012,06,05,12,52,25.70
2012,06,05,12,53,20.90
2012,06,05,12,54,32.20
2012,06,05,12,55,25.70
2012,06,05,12,56,35.40
2012,06,05,12,57,29.00
2012,06,05,12,58,27.40
2012,06,05,12,59,30.60
2012,06,05,13,00,38.60
2012,06,05,13,01,40.20
2012,06,05,13,02,24.20
2012,06,05,13,03,45.10
2012,06,05,13,04,37.00
2012,06,05,13,05,25.70
2012,06,05,13,06,33.80
2012,06,05,13,07,37.00
2012,06,05,13,08,29.00
2012,06,05,13,09,22.50
2012,06,05,13,10,27.40
2012,06,05,13,11,30.60
2012,06,05,13,12,24.20
2012,06,05,13,13,25.70
2012,06,05,13,14,19.30
2012,06,05,13,15,30.60
2012,06,05,13,16,37.00
2012,06,05,13,17,22.50
2012,06,05,13,18,33.80
2012,06,05,13,19,30.60
2012,06,05,13,20,22.50
2012,06,05,13,21,32.20
2012,06,05,13,22,40.20
2012,06,05,13,23,16.10
2012,06,05,13,24,30.60
2012,06,05,13,25,29.00
2012,06,05,13,26,29.00
2012,06,05,13,27,32.20
2012,06,05,13,28,22.50
2012,06,05,13,29,32.20
2012,06,05,13,30,32.20
2012,06,05,13,31,32.20
2012,06,05,13,32,37.00
2012,06,05,13,33,32.20
2012,06,05,13,34,30.60
2012,06,05,13,35,24.20
2012,06,05,13,36,20.90
2012,06,05,13,37,25.70
2012,06,05,13,38,27.40
2012,06,05,13,39,30.60
2012,06,05,13,40,35.40
2012,06,05,13,41,40.20
2012,06,05,13,42,37.00
2012,06,05,13,43,24.20
2012,06,05,13,44,30.60
2012,06,05,13,45,22.50
2012,06,05,13,46,37.00
2012,06,05,13,47,27.40
2012,06,05,13,48,32.20
2012,06,05,13,49,46.70
2012,06,05,13,50,43.50
2012,06,05,13,51,37.00
2012,06,05,13,52,32.20
2012,06,05,13,53,32.20
2012,06,05,13,54,29.00
2012,06,05,13,55,25.70
2012,06,05,13,56,22.50
2012,06,05,13,57,29.00
2012,06,05,13,58,33.80
2012,06,05,13,59,30.60
2012,06,05,14,00,29.00
2012,06,05,14,01,35.40
2012,06,05,14,02,25.70
2012,06,05,14,03,29.00
2012,06,05,14,04,32.20
2012,06,05,14,05,29.00
2012,06,05,14,06,27.40
2012,06,05,14,07,27.40
2012,06,05,14,08,29.00
2012,06,05,14,09,20.90
2012,06,05,14,10,24.20
2012,06,05,14,11,27.40
2012,06,05,14,12,30.60
2012,06,05,14,13,37.00
2012,06,05,14,14,22.50
2012,06,05,14,15,24.20
2012,06,05,14,16,24.20
2012,06,05,14,17,29.00
2012,06,05,14,18,32.20
2012,06,05,14,19,19.30
2012,06,05,14,20,27.40
2012,06,05,14,21,32.20
2012,06,05,14,22,32.20
2012,06,05,14,23,27.40
2012,06,05,14,24,27.40
2012,06,05,14,25,30.60
2012,06,05,14,26,30.60
2012,06,05,14,27,29.00
2012,06,05,14,28,32.20
2012,06,05,14,29,22.50
2012,06,05,14,30,24.20
2012,06,05,14,31,19.30
2012,06,05,14,32,20.90
2012,06,05,14,33,22.50
2012,06,05,14,34,24.20
2012,06,05,14,35,24.20
2012,06,05,14,36,24.20
2012,06,05,14,37,17.70
2012,06,05,14,38,24.20
2012,06,05,14,39,27.40
2012,06,05,14,40,27.40
2012,06,05,14,41,30.60
2012,06,05,14,42,24.20
2012,06,05,14,43,30.60
2012,06,05,14,44,22.50
2012,06,05,14,45,30.60
2012,06,05,14,46,22.50
2012,06,05,14,47,20.90
2012,06,05,14,48,14.50
2012,06,05,14,49,27.40
2012,06,05,14,50,35.40
2012,06,05,14,51,19.30
2012,06,05,14,52,29.00
2012,06,05,14,53,35.40
2012,06,05,14,54,29.00
2012,06,05,14,55,25.70
2012,06,05,14,56,35.40
2012,06,05,14,57,24.20
2012,06,05,14,58,29.00
2012,06,05,14,59,24.20
2012,06,05,15,00,33.80
2012,06,05,15,01,27.40
2012,06,05,15,02,19.30
2012,06,05,15,03,32.20
2012,06,05,15,04,29.00
2012,06,05,15,05,24.20
2012,06,05,15,06,25.70
2012,06,05,15,07,29.00
2012,06,05,15,08,19.30
2012,06,05,15,09,22.50
2012,06,05,15,10,29.00
2012,06,05,15,11,32.20
2012,06,05,15,12,20.90
2012,06,05,15,13,19.30
2012,06,05,15,14,19.30
2012,06,05,15,15,29.00
2012,06,05,15,16,27.40
2012,06,05,15,17,20.90
2012,06,05,15,18,32.20
2012,06,05,15,19,25.70
2012,06,05,15,20,35.40
2012,06,05,15,21,33.80
2012,06,05,15,22,33.80
2012,06,05,15,23,29.00
2012,06,05,15,24,30.60
2012,06,05,15,25,19.30
2012,06,05,15,26,22.50
2012,06,05,15,27,30.60
2012,06,05,15,28,22.50
2012,06,05,15,29,20.90
2012,06,05,15,30,22.50
2012,06,05,15,31,20.90
2012,06,05,15,32,32.20
2012,06,05,15,33,24.20
2012,06,05,15,34,30.60
2012,06,05,15,35,37.00
2012,06,05,15,36,22.50
2012,06,05,15,37,27.40
2012,06,05,15,38,25.70
2012,06,05,15,39,24.20
2012,06,05,15,40,22.50
2012,06,05,15,41,25.70
2012,06,05,15,42,27.40
2012,06,05,15,43,32.20
2012,06,05,15,44,27.40
2012,06,05,15,45,22.50
2012,06,05,15,46,19.30
2012,06,05,15,47,12.90
2012,06,05,15,48,16.10
2012,06,05,15,49,16.10
2012,06,05,15,50,22.50
2012,06,05,15,51,24.20
2012,06,05,15,52,24.20
2012,06,05,15,53,22.50
2012,06,05,15,54,37.00
2012,06,05,15,55,27.40
2012,06,05,15,56,29.00
2012,06,05,15,57,29.00
2012,06,05,15,58,29.00
2012,06,05,15,59,24.20
2012,06,05,16,00,30.60
2012,06,05,16,01,27.40
2012,06,05,16,02,12.90
2012,06,05,16,03,14.50
2012,06,05,16,04,20.90
2012,06,05,16,05,14.50
2012,06,05,16,06,19.30
2012,06,05,16,07,24.20
2012,06,05,16,08,17.70
2012,06,05,16,09,19.30
2012,06,05,16,10,29.00
2012,06,05,16,11,22.50
2012,06,05,16,12,29.00
2012,06,05,16,13,32.20
2012,06,05,16,14,30.60
2012,06,05,16,15,48.30
2012,06,05,16,16,29.00
2012,06,05,16,17,27.40
2012,06,05,16,18,29.00
2012,06,05,16,19,20.90
2012,06,05,16,20,22.50
2012,06,05,16,21,20.90
2012,06,05,16,22,20.90
2012,06,05,16,23,19.30
2012,06,05,16,24,29.00
2012,06,05,16,25,19.30
2012,06,05,16,26,17.70
2012,06,05,16,27,20.90
2012,06,05,16,28,14.50
2012,06,05,16,29,16.10
2012,06,05,16,30,25.70
2012,06,05,16,31,25.70
2012,06,05,16,32,27.40
2012,06,05,16,33,19.30
2012,06,05,16,34,20.90
2012,06,05,16,35,25.70
2012,06,05,16,36,25.70
2012,06,05,16,37,20.90
2012,06,05,16,38,20.90
2012,06,05,16,39,29.00
2012,06,05,16,40,40.20
2012,06,05,16,41,24.20
2012,06,05,16,42,19.30
2012,06,05,16,43,33.80
2012,06,05,16,44,16.10
2012,06,05,16,45,25.70
2012,06,05,16,46,19.30
2012,06,05,16,47,24.20
2012,06,05,16,48,30.60
2012,06,05,16,49,29.00
2012,06,05,16,50,37.00
2012,06,05,16,51,27.40
2012,06,05,16,52,27.40
2012,06,05,16,53,24.20
2012,06,05,16,54,25.70
2012,06,05,16,55,27.40
2012,06,05,16,56,17.70
2012,06,05,16,57,29.00
2012,06,05,16,58,24.20
2012,06,05,16,59,24.20
2012,06,05,17,00,22.50
2012,06,05,17,01,19.30
2012,06,05,17,02,14.50
2012,06,05,17,03,22.50
2012,06,05,17,04,30.60
2012,06,05,17,05,19.30
2012,06,05,17,06,25.70
2012,06,05,17,07,29.00
2012,06,05,17,08,25.70
2012,06,05,17,09,32.20
2012,06,05,17,10,30.60
2012,06,05,17,11,27.40
2012,06,05,17,12,22.50
2012,06,05,17,13,24.20
2012,06,05,17,14,30.60
2012,06,05,17,15,30.60
2012,06,05,17,16,29.00
2012,06,05,17,17,33.80
2012,06,05,17,18,20.90
2012,06,05,17,19,22.50
2012,06,05,17,20,25.70
2012,06,05,17,21,20.90
2012,06,05,17,22,30.60
2012,06,05,17,23,32.20
2012,06,05,17,24,20.90
2012,06,05,17,25,19.30
2012,06,05,17,26,16.10
2012,06,05,17,27,19.30
2012,06,05,17,28,22.50
2012,06,05,17,29,24.20
2012,06,05,17,30,20.90
2012,06,05,17,31,24.20
2012,06,05,17,32,24.20
2012,06,05,17,33,20.90
2012,06,05,17,34,14.50
2012,06,05,17,35,24.20
2012,06,05,17,36,24.20
2012,06,05,17,37,19.30
2012,06,05,17,38,16.10
2012,06,05,17,39,25.70
2012,06,05,17,40,19.30
2012,06,05,17,41,20.90
2012,06,05,17,42,22.50
2012,06,05,17,43,20.90
2012,06,05,17,44,20.90
2012,06,05,17,45,17.70
2012,06,05,17,46,14.50
2012,06,05,17,47,11.30
2012,06,05,17,48,25.70
2012,06,05,17,49,24.20
2012,06,05,17,50,22.50
2012,06,05,17,51,20.90
2012,06,05,17,52,29.00
2012,06,05,17,53,19.30
2012,06,05,17,54,27.40
2012,06,05,17,55,19.30
2012,06,05,17,56,27.40
2012,06,05,17,57,29.00
2012,06,05,17,58,22.50
2012,06,05,17,59,20.90
2012,06,05,18,00,19.30
2012,06,05,18,01,25.70
2012,06,05,18,02,25.70
2012,06,05,18,03,29.00
2012,06,05,18,04,27.40
2012,06,05,18,05,20.90
2012,06,05,18,06,24.20
2012,06,05,18,07,25.70
2012,06,05,18,08,25.70
2012,06,05,18,09,29.00
2012,06,05,18,10,25.70
2012,06,05,18,11,20.90
2012,06,05,18,12,29.00
2012,06,05,18,13,32.20
2012,06,05,18,14,20.90
2012,06,05,18,15,25.70
2012,06,05,18,16,22.50
2012,06,05,18,17,20.90
2012,06,05,18,18,22.50
2012,06,05,18,19,32.20
2012,06,05,18,20,30.60
2012,06,05,18,21,24.20
2012,06,05,18,22,16.10
2012,06,05,18,23,16.10
2012,06,05,18,24,20.90
2012,06,05,18,25,16.10
2012,06,05,18,26,12.90
2012,06,05,18,27,22.50
2012,06,05,18,28,12.90
2012,06,05,18,29,24.20
2012,06,05,18,30,20.90
2012,06,05,18,31,16.10
2012,06,05,18,32,22.50
2012,06,05,18,33,24.20
2012,06,05,18,34,19.30
2012,06,05,18,35,16.10
2012,06,05,18,36,22.50
2012,06,05,18,37,22.50
2012,06,05,18,38,20.90
2012,06,05,18,39,12.90
2012,06,05,18,40,20.90
2012,06,05,18,41,22.50
2012,06,05,18,42,19.30
2012,06,05,18,43,17.70
2012,06,05,18,44,19.30
2012,06,05,18,45,27.40
2012,06,05,18,46,24.20